2023-117D (57583 NORAD) Tracking and Keplerian Element Data

This shows tracking and keplerian element data for the satellite.

Feedback or suggestion? Click here.




ElementValue
Catalog57583
Name2023-117D
Epoch Orbit2357
Epoch Day13.13569962
Epoch Year2024
RAAN87.7648
Inclination97.504
Eccentricity0.0012756
Argument of Perigee111.4691
Mean Anonmoly248.7903
Mean Motion15.15722428
Decay Rate0.00018903
L11 57583U 23117D 24013.13569962 .00018903 00000+0 99170-3 0 9992
L22 57583 97.5040 87.7648 0012756 111.4691 248.7903 15.15722428 23576



Live tracking and technical data element details for 2023-117D (NORAD 57583). 2023-117D can be tracked NOW for your location showing map with azimuth and elevation plus other details from your city location.







IsCatalogInMostPopularTable: catalog: 57583, numindb: 22
Update: records affected: 1



GetName: 57583 2023-117D

Hit Count: updated at: Thu, 29 Feb 2024 05:27:23 GMT